{"data":{"norad_id":68112,"epoch":"2026-09-19T07:15:54.640800Z","epoch_age_seconds":159519,"freshness":"FRESH","line1":"1 68112U 26044M   26262.30271575  .00015256  00000+0  47375-3 0  9999","line2":"2 68112  97.2845 221.2617 0001362  93.7619 266.3779 15.33457055 31252","mean_motion":15.33457055,"eccentricity":0.0001362,"inclination_deg":97.2845,"raan_deg":221.2617,"arg_perigee_deg":93.7619,"mean_anomaly_deg":266.3779,"bstar":0.00047375,"rev_number":3125,"period_min":93.905466429903,"perigee_km":464.57520315983,"apogee_km":466.4394118692,"semimajor_km":6843.6443075145,"source":"CELESTRAK","updated_at":"2026-09-20T09:00:43.787420Z"}}